| time (UTC) | temp F | wind direction | speed MPH | gust MPH | rain 1hr in | rain 24hr in | rain mn in | humidity % | barometer mb |
| 20260502170332 | 72 | 31 | 1.0 | 4.0 | 0.00 | 0.00 | 0.00 | 51 | 1014.0 |
| 20260502164340 | 73 | 338 | 2.0 | 4.0 | 0.00 | 0.00 | 0.00 | 48 | 1014.3 |
| 20260502163349 | 74 | 356 | 1.0 | 7.0 | 0.00 | 0.00 | 0.00 | 48 | 1014.5 |
| 20260502162357 | 75 | 12 | 1.0 | 3.0 | 0.00 | 0.00 | 0.00 | 47 | 1014.6 |
| 20260502161330 | 75 | 328 | 0.0 | 6.0 | 0.00 | 0.00 | 0.00 | 47 | 1014.8 |
| 20260502160320 | 76 | 337 | 1.0 | 7.0 | 0.00 | 0.00 | 0.00 | 49 | 1014.9 |
| 20260502152335 | 77 | 208 | 2.0 | 6.0 | 0.00 | 0.00 | 0.00 | 46 | 1015.4 |
| 20260502151350 | 77 | 271 | 4.0 | 9.0 | 0.00 | 0.00 | 0.00 | 47 | 1015.5 |
| 20260502150343 | 77 | 223 | 2.0 | 10.0 | 0.00 | 0.00 | 0.00 | 50 | 1015.6 |
| 20260502130322 | 74 | 241 | 5.0 | 10.0 | 0.00 | 0.00 | 0.00 | 61 | 1017.1 |
| 20260502123328 | 72 | 208 | 3.0 | 9.0 | 0.00 | 0.00 | 0.00 | 63 | 1017.3 |
| 20260502122347 | 72 | 171 | 4.0 | 8.0 | 0.00 | 0.00 | 0.00 | 66 | 1017.4 |
| 20260502121323 | 72 | 257 | 4.0 | 8.0 | 0.00 | 0.00 | 0.00 | 67 | 1017.5 |
| 20260502120357 | 71 | 208 | 4.0 | 9.0 | 0.00 | 0.00 | 0.00 | 68 | 1017.6 |
| 20260502115330 | 70 | 290 | 6.0 | 12.0 | 0.00 | 0.00 | 0.00 | 69 | 1017.7 |
| 20260502114321 | 70 | 268 | 4.0 | 10.0 | 0.00 | 0.00 | 0.00 | 69 | 1017.9 |
| 20260502113331 | 70 | 203 | 5.0 | 9.0 | 0.00 | 0.00 | 0.00 | 71 | 1017.9 |
| 20260502112329 | 69 | 220 | 3.0 | 7.0 | 0.00 | 0.00 | 0.00 | 72 | 1017.9 |
| 20260502111342 | 70 | 230 | 4.0 | 10.0 | 0.00 | 0.00 | 0.00 | 72 | 1018.1 |
| 20260502110335 | 70 | 208 | 3.0 | 9.0 | 0.00 | 0.00 | 0.00 | 71 | 1018.0 |
| 20260502105354 | 71 | 221 | 4.0 | 12.0 | 0.00 | 0.00 | 0.00 | 69 | 1018.0 |
| 20260502104327 | 71 | 302 | 3.0 | 8.0 | 0.00 | 0.00 | 0.00 | 71 | 1018.1 |
| 20260502103348 | 69 | 208 | 5.0 | 10.0 | 0.00 | 0.00 | 0.00 | 73 | 1018.3 |
| 20260502102326 | 69 | 169 | 6.0 | 11.0 | 0.00 | 0.00 | 0.00 | 72 | 1018.3 |
| 20260502101326 | 69 | 208 | 4.0 | 10.0 | 0.00 | 0.00 | 0.00 | 72 | 1018.3 |
| 20260502100321 | 69 | 163 | 4.0 | 11.0 | 0.00 | 0.00 | 0.00 | 71 | 1018.3 |
| 20260502091414 | 69 | 279 | 3.0 | 12.0 | 0.00 | 0.00 | 0.00 | 73 | 1018.5 |
| 20260502090410 | 69 | 292 | 3.0 | 9.0 | 0.00 | 0.00 | 0.00 | 72 | 1018.5 |
| 20260502071322 | 60 | 191 | 0.0 | 0.0 | 0.00 | 0.00 | 0.00 | 76 | 1018.2 |
| 20260502070324 | 59 | 190 | 0.0 | 0.0 | 0.00 | 0.00 | 0.00 | 75 | 1018.3 |
| 20260502065351 | 59 | 190 | 0.0 | 0.0 | 0.00 | 0.00 | 0.00 | 75 | 1018.3 |
| 20260502064331 | 59 | 190 | 0.0 | 0.0 | 0.00 | 0.00 | 0.00 | 74 | 1018.3 |
| 20260502063352 | 59 | 190 | 0.0 | 0.0 | 0.00 | 0.00 | 0.00 | 74 | 1018.3 |
| 20260502062346 | 59 | 191 | 0.0 | 0.0 | 0.00 | 0.00 | 0.00 | 74 | 1018.4 |
| 20260502061349 | 58 | 192 | 0.0 | 2.0 | 0.00 | 0.00 | 0.00 | 74 | 1018.5 |
| 20260502060336 | 58 | 190 | 2.0 | 4.0 | 0.00 | 0.00 | 0.00 | 74 | 1018.5 |
| 20260502055322 | 57 | 233 | 2.0 | 5.0 | 0.00 | 0.00 | 0.00 | 73 | 1018.5 |
| 20260502054350 | 56 | 277 | 2.0 | 4.0 | 0.00 | 0.00 | 0.00 | 73 | 1018.5 |
| 20260502053337 | 56 | 247 | 0.0 | 2.0 | 0.00 | 0.00 | 0.00 | 73 | 1018.5 |
| 20260502052341 | 55 | 247 | 0.0 | 1.0 | 0.00 | 0.00 | 0.00 | 73 | 1018.4 |
| 20260502051321 | 55 | 247 | 1.0 | 2.0 | 0.00 | 0.00 | 0.00 | 73 | 1018.4 |
| 20260502050336 | 55 | 247 | 0.0 | 2.0 | 0.00 | 0.00 | 0.00 | 72 | 1018.3 |
| 20260502045355 | 54 | 247 | 0.0 | 1.0 | 0.00 | 0.00 | 0.00 | 71 | 1018.3 |
| 20260502044331 | 54 | 247 | 0.0 | 3.0 | 0.00 | 0.00 | 0.00 | 72 | 1018.3 |
| 20260502043337 | 54 | 286 | 1.0 | 4.0 | 0.00 | 0.00 | 0.00 | 73 | 1018.4 |
| 20260502042350 | 53 | 239 | 3.0 | 4.0 | 0.00 | 0.00 | 0.00 | 74 | 1018.6 |
| 20260502041357 | 52 | 290 | 0.0 | 0.0 | 0.00 | 0.00 | 0.00 | 74 | 1018.4 |
| 20260502040334 | 52 | 298 | 0.0 | 0.0 | 0.00 | 0.00 | 0.00 | 74 | 1018.3 |
| 20260502035350 | 52 | 302 | 0.0 | 0.0 | 0.00 | 0.00 | 0.00 | 74 | 1018.3 |
| 20260502034348 | 52 | 302 | 0.0 | 0.0 | 0.00 | 0.00 | 0.00 | 73 | 1018.2 |
| 20260502033410 | 52 | 302 | 0.0 | 0.0 | 0.00 | 0.00 | 0.00 | 74 | 1018.4 |
| 20260502032328 | 51 | 302 | 0.0 | 6.0 | 0.00 | 0.00 | 0.00 | 74 | 1018.4 |
| 20260502031336 | 51 | 141 | 1.0 | 3.0 | 0.00 | 0.00 | 0.00 | 74 | 1018.2 |
| 20260502030343 | 51 | 147 | 2.0 | 3.0 | 0.00 | 0.00 | 0.00 | 74 | 1018.6 |
| 20260502025330 | 51 | 184 | 0.0 | 1.0 | 0.00 | 0.00 | 0.00 | 74 | 1018.5 |
| 20260502024326 | 50 | 184 | 0.0 | 3.0 | 0.00 | 0.00 | 0.00 | 74 | 1018.6 |
| 20260502023337 | 50 | 99 | 0.0 | 0.0 | 0.00 | 0.00 | 0.00 | 74 | 1018.6 |
| 20260502022340 | 50 | 98 | 0.0 | 1.0 | 0.00 | 0.00 | 0.00 | 74 | 1018.6 |
| 20260502021356 | 50 | 98 | 0.0 | 3.0 | 0.00 | 0.00 | 0.00 | 76 | 1018.8 |
| 20260502020339 | 50 | 97 | 0.0 | 2.0 | 0.00 | 0.00 | 0.00 | 73 | 1018.8 |
| 20260502015326 | 50 | 98 | 0.0 | 0.0 | 0.00 | 0.00 | 0.00 | 73 | 1018.8 |
| 20260502014335 | 50 | 98 | 0.0 | 2.0 | 0.00 | 0.00 | 0.00 | 73 | 1018.9 |
| 20260502013325 | 51 | 98 | 0.0 | 0.0 | 0.00 | 0.00 | 0.00 | 73 | 1019.0 |
| 20260502012340 | 51 | 98 | 0.0 | 0.0 | 0.00 | 0.00 | 0.00 | 73 | 1019.1 |
| 20260502011342 | 51 | 98 | 0.0 | 1.0 | 0.00 | 0.00 | 0.00 | 73 | 1019.0 |
| 20260502010349 | 51 | 98 | 0.0 | 1.0 | 0.00 | 0.00 | 0.00 | 73 | 1019.1 |
| 20260502005322 | 51 | 98 | 0.0 | 2.0 | 0.00 | 0.00 | 0.00 | 73 | 1019.2 |
| 20260502004408 | 51 | 98 | 1.0 | 3.0 | 0.00 | 0.00 | 0.00 | 73 | 1019.2 |
| 20260502003337 | 51 | 93 | 0.0 | 2.0 | 0.00 | 0.00 | 0.00 | 73 | 1019.3 |
| 20260502002329 | 51 | 93 | 0.0 | 2.0 | 0.00 | 0.00 | 0.00 | 72 | 1019.3 |
| 20260502001334 | 51 | 93 | 0.0 | 0.0 | 0.00 | 0.00 | 0.00 | 72 | 1019.5 |
| 20260502000324 | 52 | 93 | 0.0 | 0.0 | 0.00 | 0.00 | 0.00 | 72 | 1019.5 |
| 20260501235332 | 52 | 93 | 0.0 | 0.0 | 0.00 | 0.00 | 0.00 | 71 | 1019.6 |
| 20260501234339 | 52 | 93 | 0.0 | 0.0 | 0.00 | 0.00 | 0.00 | 71 | 1019.6 |
| 20260501233328 | 52 | 92 | 0.0 | 0.0 | 0.00 | 0.00 | 0.00 | 71 | 1019.7 |
| 20260501232339 | 52 | 93 | 0.0 | 0.0 | 0.00 | 0.00 | 0.00 | 70 | 1019.8 |
| 20260501231350 | 53 | 93 | 0.0 | 0.0 | 0.00 | 0.00 | 0.00 | 70 | 1019.8 |
| 20260501230331 | 53 | 93 | 0.0 | 0.0 | 0.00 | 0.00 | 0.00 | 69 | 1019.9 |
| 20260501225342 | 53 | 93 | 0.0 | 0.0 | 0.00 | 0.00 | 0.00 | 69 | 1019.9 |
| 20260501224320 | 54 | 93 | 0.0 | 1.0 | 0.00 | 0.00 | 0.00 | 69 | 1020.1 |
| 20260501223329 | 54 | 93 | 0.0 | 0.0 | 0.00 | 0.00 | 0.00 | 68 | 1020.2 |
| 20260501222339 | 55 | 93 | 0.0 | 0.0 | 0.00 | 0.00 | 0.00 | 68 | 1020.3 |
| 20260501221329 | 55 | 93 | 0.0 | 0.0 | 0.00 | 0.00 | 0.00 | 68 | 1020.2 |
| 20260501220354 | 55 | 93 | 0.0 | 3.0 | 0.00 | 0.00 | 0.00 | 68 | 1020.2 |
| 20260501215330 | 56 | 108 | 0.0 | 3.0 | 0.00 | 0.00 | 0.00 | 67 | 1020.3 |
| 20260501214337 | 56 | 294 | 0.0 | 0.0 | 0.00 | 0.00 | 0.00 | 64 | 1020.3 |
| 20260501213355 | 56 | 294 | 0.0 | 0.0 | 0.00 | 0.00 | 0.00 | 63 | 1020.3 |
| 20260501212353 | 57 | 294 | 0.0 | 0.0 | 0.00 | 0.00 | 0.00 | 62 | 1020.3 |
| 20260501211332 | 58 | 294 | 0.0 | 0.0 | 0.00 | 0.00 | 0.00 | 60 | 1020.3 |
| 20260501210331 | 58 | 294 | 0.0 | 0.0 | 0.00 | 0.00 | 0.00 | 59 | 1020.3 |
| 20260501205336 | 59 | 294 | 0.0 | 0.0 | 0.00 | 0.00 | 0.00 | 58 | 1020.4 |
| 20260501204332 | 59 | 294 | 0.0 | 0.0 | 0.00 | 0.00 | 0.00 | 57 | 1020.4 |
| 20260501203324 | 60 | 294 | 0.0 | 0.0 | 0.00 | 0.00 | 0.00 | 55 | 1020.4 |
| 20260501202341 | 61 | 294 | 0.0 | 0.0 | 0.00 | 0.00 | 0.00 | 53 | 1020.5 |
| 20260501201325 | 62 | 294 | 0.0 | 0.0 | 0.00 | 0.00 | 0.00 | 52 | 1020.5 |
| 20260501200344 | 63 | 294 | 0.0 | 0.0 | 0.00 | 0.00 | 0.00 | 50 | 1020.5 |
| 20260501195323 | 64 | 294 | 0.0 | 0.0 | 0.00 | 0.00 | 0.00 | 46 | 1020.5 |
| 20260501194322 | 66 | 294 | 0.0 | 0.0 | 0.00 | 0.00 | 0.00 | 44 | 1020.4 |
| 20260501193319 | 67 | 294 | 0.0 | 0.0 | 0.00 | 0.00 | 0.00 | 42 | 1020.4 |
| 20260501192346 | 68 | 294 | 0.0 | 0.0 | 0.00 | 0.00 | 0.00 | 39 | 1020.4 |
| 20260501191322 | 70 | 294 | 0.0 | 0.0 | 0.00 | 0.00 | 0.00 | 38 | 1020.3 |
| 20260501190414 | 71 | 294 | 0.0 | 0.0 | 0.00 | 0.00 | 0.00 | 35 | 1020.3 |
| 20260501185322 | 72 | 294 | 0.0 | 0.0 | 0.00 | 0.00 | 0.00 | 34 | 1020.2 |
| 20260501184331 | 73 | 294 | 0.0 | 0.0 | 0.00 | 0.00 | 0.00 | 32 | 1020.2 |
| 20260501183322 | 73 | 295 | 1.0 | 5.0 | 0.00 | 0.00 | 0.00 | 31 | 1020.2 |
| 20260501182324 | 74 | 295 | 3.0 | 5.0 | 0.00 | 0.00 | 0.00 | 30 | 1020.2 |
| 20260501181339 | 76 | 194 | 2.0 | 3.0 | 0.00 | 0.00 | 0.00 | 27 | 1020.2 |
| 20260501180354 | 76 | 191 | 1.0 | 4.0 | 0.00 | 0.00 | 0.00 | 26 | 1020.2 |
| 20260501175339 | 76 | 175 | 2.0 | 5.0 | 0.00 | 0.00 | 0.00 | 27 | 1020.2 |
| 20260501174405 | 76 | 203 | 3.0 | 5.0 | 0.00 | 0.00 | 0.00 | 26 | 1020.2 |
| 20260501173350 | 76 | 176 | 2.0 | 5.0 | 0.00 | 0.00 | 0.00 | 26 | 1020.2 |
| 20260501172339 | 76 | 243 | 3.0 | 5.0 | 0.00 | 0.00 | 0.00 | 25 | 1020.3 |
| 20260501171337 | 77 | 267 | 3.0 | 6.0 | 0.00 | 0.00 | 0.00 | 24 | 1020.3 |